Location: Mason Neck State Park
(38.6428°N, 77.1981°W)
Time: 08:06:30
(UTC-05:00)

Daily predictions for brighter satellites

Satellite Brightness Start Highest point End
(mag) Time Altitude Azimuth Time Altitude Azimuth Time Altitude Azimuth
Cosmos 2233 Rocket 4.0 18:12:19 10° N 18:18:37 75° E 18:24:49 10° SSE
EO 1 Del DPAF 3.7 18:17:21 10° NNE 18:20:59 40° E 18:24:34 10° S
Shenzhou-11 Module 3.8 18:21:32 10° W 18:24:12 29° SSW 18:26:51 10° SSE
Cosmos 405 2.9 18:23:46 10° S 18:27:13 64° E 18:30:42 10° NNE
Cosmos 1378 Rocket 4.5 18:25:21 10° NNE 18:29:07 27° ENE 18:32:53 10° SE
Cosmos 1624 Rocket 4.5 18:24:26 10° NNW 18:29:37 68° WSW 18:34:45 10° S
Landsat 4 3.6 18:28:08 10° NNE 18:31:53 73° ESE 18:35:37 10° S
NOAA 12 4.1 18:29:09 10° SSE 18:34:27 83° ENE 18:39:48 10° NNW
Sich 1 Rocket 4.4 18:32:16 10° SSE 18:36:08 28° E 18:39:58 10° NNE
Cosmos 1464 Rocket 4.3 18:30:39 10° N 18:36:27 42° ENE 18:42:13 10° SSE
OAO 2 Rocket 4.0 18:36:59 10° SW 18:41:37 40° SSE 18:45:28 14° E
Cosmos 2219 Rocket 4.2 18:38:22 10° NW 18:43:20 32° WSW 18:48:15 10° SSW
COSMO-SKYMED 1 3.7 18:39:43 10° N 18:43:53 46° WNW 18:48:01 10° SW
Okean 2 Rocket 4.3 18:49:25 10° SE 18:52:31 19° E 18:55:38 10° NE
Cosmos 468 4.4 18:50:53 10° S 18:56:07 73° ESE 19:01:23 10° NNE
SeaSat 1 3.2 18:53:05 14° ESE 18:56:33 31° NE 19:00:52 10° N
Cosmos 2227 Rocket 3.4 18:51:20 10° SW 18:56:41 43° WNW 19:02:04 10° N
USA 215 3.3 18:50:34 10° NE 18:57:02 61° SE 19:03:27 10° SSW
SJ-6B 3.3 18:55:15 10° SE 18:58:42 35° ENE 19:02:13 10° N
Envisat 3.6 18:54:29 10° SE 18:58:58 33° ENE 19:03:28 10° N
Cosmos 2237 Rocket 3.2 18:53:45 10° NW 18:59:09 49° WSW 19:04:31 10° S
Thor Agena Rocket 3.8 18:56:52 10° NNE 19:01:41 41° E 19:06:25 10° S
SL-16 R/B 2.1 18:57:33 10° NNW 19:03:13 71° ENE 19:08:51 10° SSE
Tiangong 2 1.3 19:01:03 10° WNW 19:04:13 64° SSW 19:05:47 26° SE
FREGAT/IRIS 2.4 19:02:38 10° SSE 19:05:35 80° ENE 19:08:33 10° N
USA 32 4.0 19:01:11 10° SSE 19:06:18 59° E 19:11:26 10° NNE
Cosmos 44 Rocket 3.4 19:01:45 10° NNW 19:06:47 64° ENE 19:11:23 13° SE
Cosmos 1269 Rocket 4.1 19:02:27 10° S 19:07:33 52° ESE 19:12:40 10° NNE
H-2A R/B 3.2 19:04:27 10° S 19:08:20 67° WSW 19:12:14 10° NNW
Cosmos 1674 Rocket 4.1 19:04:10 10° NNW 19:08:27 60° W 19:12:41 10° S
HJ-1C 3.4 19:07:17 10° SSE 19:10:38 59° ENE 19:14:01 10° N
Cosmos 2297 Rocket 3.6 19:05:25 10° SW 19:10:40 39° WNW 19:15:57 10° N
Cosmos 2034 Rocket 4.0 19:05:37 10° N 19:11:57 61° E 19:18:13 10° SSE
Cosmos 1891 Rocket 4.4 19:07:39 10° N 19:13:54 76° E 19:19:58 10° SSE
Okean 1 3.2 19:10:16 10° N 19:14:13 59° E 19:18:07 10° SSE
Cosmos 1908 Rocket 3.7 19:10:30 10° S 19:14:57 77° W 19:19:27 10° N
Okean 3 4.0 19:12:07 10° NNW 19:16:13 59° W 19:20:19 10° S
Meteor 1-20 Rocket 4.4 19:12:27 10° SSW 19:18:07 77° W 19:23:56 10° N
Cosmos 1633 3.5 19:15:12 10° SSW 19:18:39 48° W 19:22:07 10° N
Cosmos 921 Rocket 3.1 19:16:31 10° N 19:20:59 58° ENE 19:23:42 22° SE
ERS-2 2.6 19:17:40 10° S 19:21:19 63° WSW 19:24:59 10° NNW
Cosmos 1603 4.3 19:16:27 10° N 19:21:34 33° ENE 19:22:38 31° E
CZ-2D R/B 3.1 19:22:37 16° SSE 19:25:39 66° ENE 19:29:31 10° N
USA 267 4.3 19:27:10 23° ENE 19:29:33 29° NNE 19:35:00 10° NNW
Resurs 1-3 4.4 19:30:55 33° NE 19:30:55 33° NE 19:34:04 10° N
CENTAUR R/B 2.9 19:26:14 10° SW 19:32:07 62° NW 19:38:54 10° NNE
CZ-4C R/B 3.9 19:30:52 10° NNW 19:36:35 25° NE 19:37:37 24° NE
Cosmos 44 4.2 19:32:48 10° NW 19:37:44 52° WSW 19:42:51 10° S
Cosmos 1602 3.6 19:34:27 10° S 19:38:21 90° W 19:42:16 10° N
Cosmos 2263 Rocket 4.1 19:36:32 10° SSE 19:37:15 13° SSE 19:37:15 13° SSE
Resurs 01 Rocket 2.2 19:42:38 41° NNE 19:42:38 41° NNE 19:45:54 10° N
Cosmos 1975 Rocket 3.0 19:38:59 10° N 19:43:27 89° WSW 19:46:31 20° S
Spot 2 Rocket 3.9 19:49:48 44° NE 19:49:48 44° NE 19:53:47 10° N
Meteor 1-19 Rocket 4.0 19:45:42 10° N 19:51:15 82° E 19:54:50 23° SSE
Meteor 1-11 Rocket 3.5 19:47:26 10° S 19:52:56 69° E 19:58:35 10° NNE
Geosat 3.8 19:51:11 38° NNE 19:53:11 83° ESE 19:58:12 10° SSW
Cosmos 1437 Rocket 3.9 19:49:24 10° SSW 19:53:16 45° WNW 19:57:13 10° N
Meteor 2-4 Rocket 3.7 19:48:57 10° N 19:54:42 61° ENE 19:54:53 60° E
Cosmos 2227 4.2 19:53:03 10° SSW 19:58:47 80° WNW 20:03:12 18° NNE
Gbstr 26 Del rocket 3.7 19:56:19 10° SW 19:58:46 40° SW 19:58:46 40° SW
COSMOS 2455 2.9 19:54:25 10° S 19:59:33 54° SE 19:59:33 54° SE
Tsikada Rocket 4.4 19:58:04 10° SSW 20:04:24 64° W 20:10:47 10° N
OAO 2 Rocket 4.4 20:21:14 10° WSW 20:24:26 38° WSW 20:24:26 38° WSW
Cosmos 1943 4.2 20:23:48 10° NNW 20:27:09 36° N 20:27:09 36° N
SeaSat 1 3.9 20:32:53 30° SW 20:33:58 33° WSW 20:38:24 10° NW
USA 215 4.2 20:37:21 30° NNE 20:39:50 41° NNW 20:45:51 10° W
USA 267 4.2 21:14:32 41° NW 21:14:32 41° NW 21:18:30 10° NW
CZ-4C R/B 3.9 21:18:36 10° NW 21:22:51 40° NW 21:22:51 40° NW
CZ-3C R/B 4.4 21:22:57 10° SW 22:12:39 - ESE 21:25:19 23° SSW
